www.pogodaiklimat.ru

Погода и климат >> Архив погоды >> Южная Африка >> Ист-Лондон


ПОГОДА в Ист-Лондоне

  • Прогноз погоды в Ист-Лондоне
  • Монитор погоды в Ист-Лондоне

АРХИВ ПОГОДЫ в Ист-Лондоне

Время (UTC), дата Ветер
(напр.,м/с)
 
Видим.   Явления Облачность Т
(С)
Тd
(С)
f
(%)
Тe
(С)
Тes
(С)
Комфортность P
(гПа)
Po
(гПа)
Тmin
(С)
Tmax
(С)
R
(мм)
R24
(мм)
S
(см)
06 11.06 СЗ 2 40 км ясно +9.9 +8.5 91 +9 +9 1022.3 1006.2 +9.6
12 11.06 СВ 3 40 км ясно +22.6 +9.6 44 +24 +29 комфорт 1017.0 1001.7 +9.6
18 11.06 СЗ 3 н/о ясно +20.6 +6.7 40 +22 +22 комфорт 1014.7 999.3 +23.6
00 12.06 СЗ 5
{11}
н/о ясно +25.2 +3.4 24 +24 +24 комфорт 1013.4 998.2
06 12.06 ЮЗ 6 40 км 3/0
[Cs]
+16.2 +12.0 76 +15 +15 1018.3 1002.6 +15.0
12 12.06 ЮЗ 10 30 км 1/1 1000 м
[Sc]
+17.9 +10.8 63 +17 +17 1019.3 1003.7 +14.9
18 12.06 ЮЗ 10 20 км 9/9 1500 м
[Sc]
+14.8 +7.4 61 +12 +12 1025.4 1009.5 +19.6
00 13.06 З 7
{14}
н/о ясно +12.2 +3.2 54 +9 +9 1029.3 1013.2
06 13.06 З 7 30 км 1/0
[Ac As]
+11.9 +2.4 52 +9 +9 1033.8 1017.6 +10.7
12 13.06 Ю 5 30 км 6/6 1000 м
[Sc Ac As]
+16.9 +5.6 47 +16 +17 1033.5 1017.6 +10.7
18 13.06 нст 1 н/о ясно +9.5 +7.6 88 +9 +9 1034.3 1018.0 +17.9
00 14.06 СЗ 3 н/о ясно +9.6 +6.7 82 +7 +7 1032.7 1016.4
06 14.06 СЗ 4 40 км 1/0
[Ci sp]
+9.2 +3.0 65 +6 +7 1030.6 1014.3 +7.4
12 14.06 В 3 40 км ясно +19.3 +6.5 43 +20 +25 1027.8 1012.1 +7.4
18 14.06 С 3 40 км ясно +12.3 +5.3 62 +11 +11 1027.1 1011.1 +20.0
00 15.06 СЗ 4 н/о ясно +8.5 +1.2 60 +6 +6 1025.2 1008.9
06 15.06 С 3 40 км 5/0
[Ci fib]
+8.1 +0.8 60 +6 +6 1022.7 1006.5 +4.6
12 15.06 нст 1 30 км ясно +24.5 +6.5 31 +24 +30 комфорт 1018.9 1003.6 +4.5
18 15.06 З 5 20 км ясно +15.8 +4.3 46 +15 +15 1023.1 1007.3 +25.0
00 16.06 СЗ 3 н/о ясно +12.0 +6.9 71 +11 +11 1024.9 1008.9
06 16.06 СЗ 4 30 км 1/0
[Ci fib]
+8.4 +4.2 75 +5 +6 1026.2 1009.9 +6.2
12 16.06 СВ 4 40 км 3/0
[Cs]
+21.2 +8.9 45 +22 +26 комфорт 1022.0 1006.5 +6.2
18 16.06 СЗ 3 н/о ясно +16.0 +11.2 73 +16 +16 1022.3 1006.5 +21.6
00 17.06 СЗ 5 н/о ясно +16.0 +1.0 36 +15 +15 1021.7 1005.9
06 17.06 СЗ 5 40 км 3/0
[Cs]
+15.9 +1.3 37 +15 +15 1022.7 1006.9 +13.5
12 17.06 ЮЗ 5 30 км 8/0
[Cs]
+27.9 +3.8 21 +26 +28 жарко 1020.3 1005.2 +11.6
18 17.06 СЗ 2 н/о ясно +13.2 +6.1 62 +13 +13 1023.5 1007.5 +28.8

 

Местоположение метеостанции Ист-Лондон (Южная Африка): широта -33.03 долгота 27.83 высота над уровнем моря 125 м.

В архиве по умолчанию представлена погода в Ист-Лондоне за последнюю неделю. Архивные данные за месяц целиком и за предыдущие месяцы, начиная с января 2011 года, Вы можете получить, выбрав интересующий диапазон дат из раскрывающегося списка и нажав кнопку "Ввод!".


*Определитесь, кто Вы:
робот инопланетянин человек

Внимание! Время в таблицах - всемирное. Для получения местного времени необходимо прибавить поправку, которая равна 2 ч.

Смотрите также архив погоды в соседних городах и на ближайших метеорологических станциях:

Погода в Аэропорту Бишо (Южная Африка) (53 км)
Погода в Стуттерхейме (Южная Африка) (67 км)
Погода в Порт-Альфред (Южная Африка) (106 км)
Погода в Форт-Бофорте (Южная Африка) (115 км)
Погода в Грейамстауне (Южная Африка) (127 км)
Погода в Куинстаун аэропорту (Южная Африка) (153 км)
Погода в Куинстауне (Южная Африка) (155 км)
Погода на Острове Бёрд (Южная Африка) (169 км)
Погода в Коффи-Бей (Южная Африка) (171 км)
Погода в Умтате (Южная Африка) (185 км)

Пояснения к столбцам:

Ветер - указаны скорость ветра в м/с - средняя за 10 мин, порывы в срок и между сроками (в фигурных скобках) и направление, откуда дует ветер: С - северный, СВ - северо-восточный, В - восточный, ЮВ - юго-восточный, Ю - южный, ЮЗ - юго-западный, З - западный, СЗ - северо-западный.
Видимость - горизонтальная дальность видимости в метрах или километрах. При видимости от 1 до 10 км при отсутствии осадков обычно наблюдается дымка, при ухудшении видимости до 1 км и менее - туман. В сухую погоду видимость может ухудшаться дымом, пылью или мглою.
Явления - указаны атмосферные явления, наблюдавшиеся в срок или в последний час перед сроком; фигурными скобками обозначены явления, наблюдавшиеся между сроками (за 1-3 часа до срока); квадратными скобками обозначены град или гололедные отложения с указанием их диаметра в мм.
Облачность - указаны через наклонную черту общая и нижняя облачность в баллах и высота нижней границы облаков в метрах; квадратными скобками обозначены формы облаков: Ci - перистые, Cs - перисто-слоистые, Cc - перисто-кучевые, Ac - высококучевые, As - высокослоистые, Sc - слоисто-кучевые, Ns - слоисто-дождевые, Cu - кучевые, Cb - кучево-дождевые. Подробнее классификацию облаков см. в Атласе облаков (PDF).
T - Температура воздуха - температура, измеренная на высоте 2 м над землей.
Td - Температура точки росы - температура, при понижении до которой содержащийся в воздухе водяной пар достигнет насыщения.
f - Относительная влажность воздуха - влажноcть воздуха, измеренная на высоте 2 м над землей.
Te - Эффективная температура - температура, которую ощущает одетый по сезону человек в тени. Характеристика душности погоды. При расчете учитывается влияние влажности воздуха и скорости ветра на теплоощущения человека.
Tes - Эффективная температура на солнце - температура, которую ощущает человек, с поправкой на солнечный нагрев. Характеристика знойности погоды. Зависит от высоты солнца над горизонтом, облачности и скорости ветра. Ночью, в пасмурную погоду, а также при ветре 12 м/с и более поправка равна нулю.
P - Атмосферное давление - приведенное к уровню моря атмосферное давление.
Po - Атмосферное давление - измеренное на уровне метеостанции атмосферное давление.
Tmin - Минимальная температура - минимум температуры воздуха на высоте 2 м над землей.
Tmax - Максимальная температура - максимум температуры воздуха на высоте 2 м над землей.
R - Количество осадков - Количество выпавших осадков за период времени, мм. При наведении курсора мыши на число - период времени, за который выпало указанное количество осадков.
R24 - Количество осадков - Количество выпавших осадков за 24 часа, мм.
S - Снежный покров - Высота снежного покрова, см. При наведении курсора мыши на число - состояние снежного покрова и степень покрытия местности в баллах.